Zurück zum Katalog

STARLINK-30829

AktivKommunikationVLEO
NORAD 58158·PAYLOAD·🇺🇸 United States

Gestartet Oct 29, 2023 von Vandenberg Space Force Base

Loading…

Nächste Überflüge (nächste 24 Stunden)

TLE

AktuellSource: CelesTrak SupGP

Epoche: Sep 14, 2026, 22:10 UTC

1 58158C 23166J   26257.92409722  .00045953  00000+0  14779-2 0  2574
2 58158  53.1587  59.5364 0001300  81.2782  55.6466 15.31674758    12

Verfolge STARLINK-30829 in Echtzeit mit AllMySat

Download on the App Store